Tracking 28790 objects as of 19-Apr-2024
HD Live streaming from Space Station
objects crossing your sky now

DELTA 1 DEB

Track DELTA 1 DEB now!
10-day predictions


NORAD ID: 9975
Int'l Code: 1973-086GE
Perigee: 1,429.9 km
Apogee: 1,572.9 km
Inclination: 102.5 °
Period: 115.9 minutes
Semi major axis: 7872 km
RCS: 0.039 m2 (small)
Launch date: November 6, 1973
Source: United States (US)
Launch site: AIR FORCE WESTERN TEST RANGE (AFWTR)

Note: This is SATELLITE DEBRIS
Your satellite tracking list
Your tracking list is empty




NASA's NSSDC Master Catalog

Two Line Element Set (TLE):
1 09975U 73086GE  24109.38978517  .00001001  00000-0  74558-2 0  9991
2 09975 102.4686  41.9642 0090791 221.4696 258.2721 12.42922196995133
Source of the keplerian elements: AFSPC